GEFSNE_500_meanwind_318.txt.gz
Wind_Speed
46 47 47 47 46 46 46 46 46 45 44 44 44 44 45 45 46 46 46 46 46 46 47 47 48 48 48 48 48 47 47 47 47 46 45 45 45 44
46 47 46 46 47 46 46 46 47 47 45 44 44 44 45 45 46 47 47 47 48 48 48 47 48 48 48 47 47 47 46 46 46 45 44 45 45 45
47 47 47 46 46 46 46 47 47 47 46 45 45 45 46 46 46 47 47 47 48 48 48 47 47 47 47 47 46 46 45 45 45 45 44 44 43 44
48 48 48 47 47 47 47 48 47 47 47 46 46 46 46 46 46 46 46 47 47 47 47 47 47 47 47 47 46 46 45 45 45 44 44 44 43 43
50 50 50 49 48 48 48 48 48 48 48 48 47 47 46 46 47 47 47 48 48 48 48 47 47 47 47 47 46 46 45 45 44 44 44 44 44 44
49 50 50 50 50 49 50 49 49 49 49 49 48 47 47 47 48 48 48 48 48 49 48 47 46 46 46 45 45 45 45 44 43 43 43 44 44 44
49 49 50 50 50 51 51 51 50 50 50 50 49 48 47 48 48 48 48 48 48 48 48 47 46 45 45 45 44 44 43 43 42 42 43 44 45 44
48 49 50 49 49 50 50 50 50 50 50 50 49 48 48 48 48 48 48 48 47 46 46 45 46 45 45 44 44 43 42 42 42 42 43 44 44 44
46 47 47 48 48 49 49 50 49 49 49 48 49 48 48 48 48 49 49 48 47 46 45 45 45 44 44 43 43 42 42 41 41 42 43 44 44 45
46 45 46 46 46 47 46 46 47 47 48 48 47 47 47 47 48 48 48 47 47 46 45 44 43 43 42 42 42 42 42 42 42 42 43 43 44 45
45 46 45 45 46 46 45 45 46 46 46 46 45 45 46 46 47 47 47 47 46 45 45 44 43 42 42 42 42 42 41 41 42 42 43 43 43 44
44 44 45 46 45 45 45 46 46 47 47 46 45 45 45 45 45 45 45 46 45 44 44 44 43 42 41 41 41 41 41 40 41 41 42 42 42 42
42 42 43 45 45 45 45 45 46 46 46 45 44 44 45 44 44 44 44 44 44 43 43 43 42 42 41 40 39 40 39 39 40 40 41 41 41 40
41 42 43 43 43 43 44 44 43 43 43 42 42 42 43 43 43 43 44 43 43 43 42 42 41 40 41 39 38 38 39 39 38 38 39 39 39 39
41 42 42 42 42 42 42 42 42 40 40 40 40 41 42 42 41 41 42 43 43 42 41 41 40 40 40 39 38 37 37 37 37 37 38 37 37 37
42 42 42 42 42 42 41 41 40 40 39 40 39 40 40 40 40 40 41 42 41 41 40 40 39 39 38 37 37 37 37 36 36 35 35 36 35 34
41 40 41 41 41 41 41 40 39 39 40 39 38 38 38 39 39 40 40 40 40 40 39 38 37 36 36 36 35 35 35 35 35 35 34 34 33 33
39 39 39 39 40 40 39 39 38 39 39 38 38 38 38 38 38 39 40 40 40 39 38 37 36 36 35 35 35 35 34 34 34 33 33 32 32 32
38 38 38 37 38 38 38 38 38 38 38 38 38 38 37 38 38 39 40 40 39 38 37 36 36 35 34 33 34 34 33 33 33 33 32 32 30 29
35 36 36 36 36 36 36 36 36 36 36 36 37 37 37 38 38 39 38 38 37 36 36 35 35 34 32 32 32 33 32 31 31 30 30 29 28 27
32 32 33 33 33 33 34 34 34 34 34 34 35 35 36 37 37 37 36 35 35 35 34 33 32 32 31 31 31 31 31 30 29 27 25 25 25 24
29 29 30 30 31 31 31 31 31 31 32 32 33 34 35 35 35 34 33 33 33 33 32 31 30 29 29 29 29 29 28 27 27 25 23 22 21 21
26 26 26 27 27 28 28 28 28 29 30 30 30 31 31 31 31 30 30 30 30 29 29 28 27 26 26 26 26 26 25 25 24 23 22 21 21 20

GEFSNE_500_meanwind_324.txt.gz
Wind_Speed
45 45 44 45 45 46 46 46 46 46 45 46 46 46 47 47 47 46 46 46 46 46 46 45 45 44 44 44 45 45 46 46 47 47 47 46 46 47
46 46 46 47 47 47 47 48 48 48 47 46 47 46 47 47 47 47 47 46 46 46 46 45 45 45 46 46 46 47 47 47 47 47 48 48 48 48
49 49 48 48 48 48 48 49 49 49 49 48 48 48 48 48 48 48 48 48 47 47 47 46 46 46 47 47 47 47 47 47 47 48 48 48 48 48
49 49 49 49 49 49 49 50 50 50 50 49 48 48 48 48 49 48 48 49 48 48 48 47 47 47 47 48 48 49 49 49 49 49 49 48 48 47
48 49 49 49 50 50 50 50 50 50 50 50 50 50 50 49 50 50 49 49 49 48 48 48 47 47 47 47 48 49 49 49 49 49 49 48 48 47
49 49 50 50 50 51 50 50 51 51 51 51 51 50 51 51 51 50 50 50 49 49 48 48 48 48 47 47 47 48 48 48 48 48 48 48 47 46
49 50 50 50 51 51 51 51 51 51 52 52 52 52 51 50 51 51 51 51 50 49 48 47 47 47 47 47 46 46 47 47 47 47 46 45 45 45
50 50 51 51 50 50 50 50 50 50 51 51 52 52 52 51 51 51 51 50 49 48 48 48 48 48 48 47 46 46 46 46 46 45 44 44 44 44
50 50 50 50 50 50 50 50 50 49 49 49 49 49 49 50 51 51 51 51 50 49 49 48 48 48 48 48 47 47 47 47 46 44 43 43 43 43
50 50 50 50 49 49 49 49 49 49 48 48 48 49 49 50 50 50 50 51 52 51 51 51 50 49 48 47 47 47 47 46 45 44 44 44 44 43
49 49 49 49 49 48 48 48 48 48 48 48 48 49 49 50 50 50 50 50 51 51 50 50 49 49 49 48 47 47 47 46 45 45 45 44 44 44
48 48 48 48 47 47 47 46 46 46 47 47 47 48 48 49 49 49 49 49 50 49 48 48 48 48 47 46 46 46 45 45 44 44 44 44 44 44
45 45 45 45 46 46 45 44 44 45 45 45 46 47 48 47 47 46 47 47 48 48 47 47 46 46 46 44 44 44 44 44 44 44 44 44 44 44
42 43 43 43 44 44 44 44 45 45 45 45 46 46 46 45 45 45 45 45 45 45 45 45 45 45 45 44 42 42 43 43 43 43 44 43 43 43
40 40 41 41 41 42 44 44 45 45 45 45 45 46 45 44 44 44 44 44 44 44 44 44 44 44 44 43 41 41 41 42 43 43 43 42 41 41
38 39 39 39 40 42 43 44 45 45 45 45 45 44 44 43 43 43 42 42 42 42 43 44 44 43 43 42 41 41 41 41 41 41 41 40 40 40
37 38 38 38 39 40 40 41 42 43 44 43 42 42 43 42 42 42 42 41 42 42 41 41 42 42 42 41 40 40 40 40 40 40 39 39 38 38
37 37 37 37 38 38 39 39 40 40 41 41 41 42 42 42 42 41 41 41 41 41 40 40 41 41 40 39 39 39 39 39 38 38 39 37 36 35
36 36 36 36 36 37 38 37 37 38 38 38 38 39 40 40 39 39 40 40 40 39 39 40 39 39 39 38 38 38 38 37 37 37 36 35 34 34
35 35 35 35 35 36 36 36 35 36 36 36 36 36 36 36 36 36 37 37 38 38 38 38 37 37 37 36 36 35 35 35 34 34 34 33 32 32
33 34 34 34 34 34 33 33 33 34 34 33 33 34 34 35 35 34 35 35 35 35 35 35 35 35 35 34 33 33 33 32 32 32 32 31 31 30
31 32 32 32 32 31 31 31 32 31 31 32 32 32 32 33 33 32 32 33 33 32 32 32 32 31 31 30 30 30 29 30 30 29 29 29 29 28
29 29 29 29 29 29 29 29 29 30 30 30 30 30 30 30 30 30 30 30 30 30 29 29 29 28 28 28 27 26 27 27 27 26 26 26 26 25

GEFSNE_500_meanwind_330.txt.gz
Wind_Speed
44 44 44 45 45 45 46 46 45 44 42 42 44 44 44 44 44 44 44 43 43 43 44 45 45 46 46 45 46 47 47 46 46 46 46 45 45 45
45 44 44 45 45 47 48 48 48 47 45 44 45 45 46 46 45 45 45 45 45 45 45 45 46 47 47 47 48 48 49 48 48 47 47 46 46 46
45 46 46 45 46 46 47 48 48 48 48 46 46 46 47 47 47 47 47 47 46 47 47 47 48 48 48 48 49 49 49 49 48 48 47 47 47 47
46 46 47 47 47 47 47 47 48 48 49 48 47 47 47 48 48 48 49 48 48 48 49 49 49 49 49 50 50 50 49 48 48 48 48 48 47 47
47 46 47 47 48 48 48 48 48 48 49 50 49 49 49 48 49 49 49 49 50 50 50 50 50 50 50 49 49 48 48 48 48 48 48 48 47 47
46 46 46 46 47 48 48 48 48 48 48 48 48 49 50 50 51 50 49 49 49 50 50 50 50 51 51 50 49 48 47 47 48 48 49 48 48 48
47 47 47 48 48 48 49 49 49 48 48 47 47 47 47 48 49 49 49 49 49 50 51 51 51 51 51 50 49 49 48 48 48 49 48 48 47 48
48 48 49 49 49 49 49 49 49 48 48 47 48 47 47 47 48 49 50 50 50 50 51 51 51 50 50 49 49 49 50 50 50 49 49 48 47 47
47 48 48 49 49 48 49 48 48 48 48 49 49 48 48 49 49 50 51 51 51 51 51 51 51 51 50 49 49 48 49 49 50 50 49 49 48 48
46 47 48 47 47 47 47 48 48 49 49 49 49 49 49 49 50 50 50 51 51 52 52 52 51 51 51 51 50 49 49 50 50 50 49 49 48 47
45 45 46 46 46 47 47 47 47 48 49 49 49 49 48 49 50 51 50 50 50 51 51 52 51 51 51 51 51 50 50 50 50 50 49 49 48 48
44 43 43 44 44 45 45 46 46 47 47 47 48 48 48 48 50 50 51 50 51 50 50 50 50 51 50 49 49 49 49 49 50 49 48 47 47 47
42 42 42 42 42 43 43 43 44 44 45 45 46 46 47 48 48 49 50 50 50 50 49 49 49 49 48 47 47 47 48 49 49 48 47 46 45 45
41 41 41 42 42 42 42 42 43 43 44 44 44 45 46 47 47 48 48 49 48 47 47 47 47 46 46 45 44 44 45 46 46 46 46 46 46 45
39 39 40 40 40 41 41 42 42 42 43 43 44 44 45 46 47 47 46 46 46 46 46 46 45 44 43 43 43 43 43 43 44 44 45 45 45 45
39 39 38 39 40 40 41 41 41 41 42 42 43 44 44 45 45 45 45 44 44 44 44 44 44 43 42 42 42 41 42 42 42 42 42 42 43 44
38 38 38 39 39 39 40 41 41 41 41 41 41 42 43 44 43 43 43 43 43 42 41 42 42 41 41 40 40 40 40 40 39 40 40 41 41 41
37 37 37 38 39 39 40 40 40 40 40 41 41 42 42 42 42 41 41 41 40 40 39 39 39 40 40 39 38 38 38 38 39 39 39 39 38 38
36 36 37 37 38 39 39 40 40 40 40 40 41 41 40 40 40 39 39 38 38 37 36 36 37 37 37 36 36 37 37 37 38 38 38 38 37 37
35 35 35 36 38 38 39 39 39 39 39 39 39 39 39 38 38 37 37 36 35 34 33 33 34 34 34 34 34 34 35 36 36 36 36 36 35 35
33 34 34 35 35 36 36 37 37 37 37 37 37 37 36 36 35 34 33 33 32 31 31 31 31 31 32 32 32 32 32 34 34 34 33 33 32 31
32 33 33 33 33 33 34 34 34 34 35 35 34 34 34 33 31 31 30 30 30 29 29 29 29 29 30 30 30 30 30 31 31 30 30 29 28 27
31 31 31 32 32 31 31 31 31 31 32 32 31 30 29 28 28 28 28 28 27 26 26 26 26 27 28 28 28 28 27 27 26 26 26 25 24 23

GEFSNE_500_meanwind_336.txt.gz
Wind_Speed
44 44 44 43 43 44 43 43 43 44 43 44 45 46 46 46 45 44 44 44 45 45 46 46 45 45 45 45 45 45 45 45 45 45 45 45 45 45
44 44 45 45 45 45 45 45 45 45 44 45 46 46 46 46 46 46 45 45 45 46 46 46 46 46 46 46 46 46 46 47 47 47 46 46 45 45
46 46 45 45 46 46 46 47 47 47 46 45 46 46 46 45 46 46 46 46 46 46 46 46 46 46 47 47 47 47 47 47 47 47 47 46 46 46
46 46 46 45 46 47 47 48 48 48 48 47 46 47 47 46 46 46 47 47 47 47 47 47 47 47 47 48 48 49 49 49 48 48 48 48 47 47
47 46 46 46 47 47 48 49 49 49 49 48 47 47 47 47 47 48 48 48 49 48 48 48 48 48 49 49 49 50 50 50 50 50 49 48 48 48
47 46 46 47 48 48 49 49 49 49 49 49 48 47 47 48 49 49 49 49 49 49 50 49 49 50 50 50 50 50 49 49 50 50 49 48 48 48
48 47 47 47 48 48 49 49 49 49 49 49 48 48 48 48 49 49 50 50 49 50 50 51 51 51 50 50 49 49 48 48 48 49 49 49 49 49
48 48 48 47 48 49 48 48 48 49 49 49 49 49 49 49 49 49 50 50 49 49 50 50 51 51 51 50 49 49 48 47 47 48 48 49 49 49
47 47 47 47 48 48 48 47 47 48 48 49 49 48 49 49 49 49 49 50 49 50 50 49 49 49 49 49 49 48 48 47 47 48 47 48 48 48
47 46 46 46 46 46 46 46 46 46 47 47 48 48 48 48 48 48 48 48 49 49 48 48 48 48 48 48 48 48 48 48 48 48 48 47 47 47
45 45 45 45 45 45 45 45 44 45 45 46 46 46 46 46 46 46 47 47 47 47 47 48 48 48 47 47 47 47 48 49 49 49 48 47 47 47
45 45 45 45 45 45 45 45 44 45 45 45 45 45 44 45 45 46 47 48 48 47 46 47 47 48 47 47 47 47 48 48 49 49 48 47 47 46
44 44 45 45 45 45 44 44 44 45 44 44 44 44 44 44 45 46 47 47 47 47 47 47 47 47 47 47 46 47 47 48 47 47 46 46 46 45
42 43 44 44 44 44 43 43 43 43 44 43 43 43 44 45 45 45 46 46 46 46 47 47 47 47 47 47 47 46 46 46 46 45 45 45 45 45
41 42 42 43 43 42 42 42 42 42 42 42 43 43 43 44 44 44 45 45 45 45 45 46 46 46 46 46 45 45 45 44 44 44 44 44 44 44
41 41 41 41 41 40 40 40 41 42 42 43 43 43 43 43 43 44 43 43 43 43 44 44 44 44 43 44 44 44 44 44 43 43 43 43 43 43
39 39 39 39 39 39 39 39 40 40 41 41 41 42 41 42 42 42 42 42 42 42 41 42 42 42 41 42 42 43 43 43 42 42 42 41 41 41
37 37 37 37 37 37 37 38 39 39 40 39 40 40 39 40 40 40 40 41 41 40 40 40 40 41 41 40 41 41 41 41 41 40 40 39 38 38
34 34 34 34 34 35 36 36 36 37 38 38 38 38 38 39 39 39 39 39 39 38 38 39 39 39 39 39 38 39 39 39 39 38 38 38 37 37
33 33 32 32 33 33 34 34 34 35 35 36 37 37 38 38 37 37 38 37 37 36 36 36 37 36 36 36 36 36 37 37 37 36 36 36 36 35
32 32 32 32 32 32 32 32 33 33 34 34 35 35 36 36 36 35 35 35 35 34 34 34 34 35 34 34 34 34 35 35 35 35 34 34 33 33
31 31 31 31 31 31 32 32 32 32 32 33 33 34 34 33 33 33 33 32 32 33 33 33 33 33 33 32 32 33 33 33 33 32 31 31 30 29
30 31 31 31 31 31 31 31 31 32 32 33 33 33 32 31 31 30 30 30 30 30 30 31 31 31 31 31 31 31 31 30 29 28 28 28 27 26

GEFSNE_500_meanwind_342.txt.gz
Wind_Speed
44 44 45 46 46 47 48 47 46 45 44 44 44 44 45 46 46 45 45 45 45 44 44 44 44 44 44 45 45 45 44 44 45 44 44 44 45 45
46 46 46 46 46 47 48 48 48 47 46 45 46 46 46 47 46 45 46 46 45 45 45 45 44 45 45 45 44 44 45 45 46 46 45 45 45 45
48 47 46 46 46 46 47 47 47 48 47 46 47 47 47 46 46 46 46 46 46 46 45 45 45 45 46 46 46 46 46 46 46 47 46 45 45 45
49 49 49 47 46 46 47 47 48 49 48 47 48 48 47 47 47 47 47 47 47 46 46 46 47 46 46 47 47 47 47 47 46 46 46 46 46 45
51 51 51 50 49 48 49 49 49 49 49 48 48 48 48 47 48 47 47 47 47 47 47 48 49 48 48 48 48 48 48 48 47 46 46 46 45 46
52 52 51 51 51 52 52 51 50 50 50 49 49 49 49 48 48 48 48 48 48 48 48 49 49 49 49 48 48 48 49 49 48 47 46 45 45 46
52 52 52 52 52 53 53 52 52 52 52 51 51 51 50 50 49 49 48 48 48 49 49 49 49 49 49 49 49 49 49 48 48 48 47 46 46 47
51 51 52 52 52 51 51 51 52 52 52 51 51 50 50 50 49 49 49 49 49 49 49 49 49 49 49 49 48 48 47 47 46 47 48 47 47 47
49 50 50 51 51 50 50 50 50 51 51 51 51 50 50 50 49 49 49 49 48 48 48 48 49 48 48 48 47 47 47 46 46 46 46 47 47 47
48 49 49 50 50 49 49 49 49 50 51 51 51 51 51 50 50 49 49 49 48 48 48 48 48 48 48 48 48 48 48 48 47 47 46 46 47 47
47 47 48 48 48 49 49 48 48 49 49 50 50 49 50 50 50 49 49 48 48 48 49 48 48 48 48 48 48 48 48 48 47 46 46 46 46 46
46 46 46 46 46 47 48 48 48 47 47 48 48 48 48 48 48 48 48 47 47 47 48 48 47 48 47 47 47 47 47 46 46 46 46 45 45 45
44 44 44 45 45 46 46 46 46 46 46 46 46 47 46 46 46 46 47 47 47 46 46 46 46 46 46 45 45 46 46 46 47 46 46 45 45 45
42 43 43 43 44 45 45 46 45 45 44 44 44 44 45 45 45 45 45 45 45 45 45 45 45 45 45 45 45 45 45 46 47 47 46 46 46 46
41 41 41 42 42 43 44 44 44 43 43 43 42 42 43 43 42 42 42 43 43 43 43 43 44 44 43 43 43 43 43 44 45 45 45 45 45 45
41 41 41 41 40 40 41 41 41 41 41 41 41 41 41 41 41 41 41 41 41 40 41 41 42 42 42 42 41 41 41 41 42 43 43 43 44 44
41 40 40 40 39 38 38 39 39 39 39 39 39 39 39 39 39 39 39 39 39 38 39 39 39 39 39 40 39 39 40 40 40 41 42 42 42 42
40 39 39 38 38 37 37 37 37 37 37 37 36 37 37 37 37 37 37 37 36 36 36 36 36 36 36 36 37 37 37 37 38 38 39 40 39 39
38 38 38 37 37 37 37 36 35 35 35 35 36 36 36 36 35 35 35 35 34 34 34 35 35 35 35 34 34 35 36 36 37 37 37 37 37 37
37 37 36 36 36 36 35 35 34 34 34 34 35 35 35 35 35 35 35 34 34 34 34 34 34 34 34 33 33 33 35 35 35 35 35 35 35 35
35 35 35 35 35 35 35 35 35 35 34 34 34 34 33 33 33 33 33 34 33 33 33 33 33 33 32 32 32 32 33 34 34 34 33 33 32 32
34 34 34 34 34 34 34 34 34 34 34 34 34 33 32 31 31 31 31 32 32 32 32 32 31 31 31 31 31 31 32 32 32 32 31 30 30 30
33 33 33 33 32 32 32 32 32 32 31 31 31 30 30 30 30 30 30 30 30 30 30 29 29 28 29 29 30 30 30 29 29 29 29 29 29 29